Weather History for Ocala, FL

Change the Weather History Date:

Wednesday, May 8, 2013

  Actual Average Record
Temperature  
Mean Temperature 19 °C -  
Max Temperature 27 °C 29 °C 33 °C (2002)
Min Temperature 12 °C 15 °C 10 °C (2007)
Cooling Degree Days 2    
Growing Degree Days 16 (Base 50)    
Moisture  
Dew Point 13 °C    
Average Humidity 77    
Maximum Humidity 94    
Minimum Humidity 42    
Precipitation  
Precipitation 0.00 mm - - ()
Sea Level Pressure  
Sea Level Pressure 1019 hPa    
Wind  
Wind Speed 5 km/h (SW)    
Max Wind Speed 27 km/h    
Max Gust Speed 27 km/h    
Visibility 15 kilometers    
Events      
Averages and records for this station are not official NWS values.
T = Trace of Precipitation, MM = Missing Value Source: NWS Daily Summary

Daily Weather History Graph

Daily Weather History Graph

Search for Another Location

Airport:

Trip Planner

Search our weather history database for the weather conditions in past years. The results will help you decide how hot, cold, wet, or windy it might be!

Date:

Astronomy

May. 08, 2013 Rise Set
Actual Time 6:41 AM EDT 8:09 PM EDT
Civil Twilight 6:16 AM EDT 8:35 PM EDT
Nautical Twilight 5:45 AM EDT 9:05 PM EDT
Astronomical Twilight 5:13 AM EDT 9:37 PM EDT
Moon 5:42 AM EDT (5/8) 7:10 PM EDT (5/8)
Length of Visible Light 14h 19m
Length of Day
13h 28m
Waning Crescent, 2% of the Moon is Illuminated
May 8
Waning Crescent
May 9
New
May 18
First Quarter
May 25
Full
May 31
Last Quarter

Hourly Weather History & Observations

Time (EDT) Temp. Heat Index Dew Point Humidity Pressure Visibility Wind Dir Wind Speed Gust Speed Precip Events Conditions
12:15 AM 14.0 °C - 12.0 °C 88% 1017.8 hPa 16.1 km Calm Calm - N/A   Clear
12:35 AM 14.0 °C - 12.0 °C 88% 1017.8 hPa 16.1 km Calm Calm - N/A   Clear
12:55 AM 14.0 °C - 12.0 °C 88% 1017.8 hPa 16.1 km Calm Calm - N/A   Clear
1:15 AM 13.0 °C - 12.0 °C 94% 1017.8 hPa 16.1 km Calm Calm - N/A   Clear
1:35 AM 13.0 °C - 11.0 °C 88% 1017.8 hPa 16.1 km South 5.6 km/h / 1.5 m/s - N/A   Clear
1:55 AM 13.0 °C - 12.0 °C 94% 1017.5 hPa 16.1 km Calm Calm - N/A   Clear
2:15 AM 13.0 °C - 11.0 °C 88% 1017.5 hPa 12.9 km South 7.4 km/h / 2.1 m/s - N/A   Clear
2:35 AM 12.0 °C - 11.0 °C 94% 1017.5 hPa 16.1 km South 5.6 km/h / 1.5 m/s - N/A   Clear
2:55 AM 13.0 °C - 11.0 °C 88% 1017.2 hPa 16.1 km Calm Calm - N/A   Clear
3:15 AM 13.0 °C - 11.0 °C 88% 1017.2 hPa 16.1 km South 7.4 km/h / 2.1 m/s - N/A   Clear
3:35 AM 12.0 °C - 10.0 °C 88% 1017.2 hPa 16.1 km South 5.6 km/h / 1.5 m/s - N/A   Clear
3:55 AM 13.0 °C - 11.0 °C 88% 1017.2 hPa 16.1 km South 7.4 km/h / 2.1 m/s - N/A   Clear
4:15 AM 13.0 °C - 11.0 °C 88% 1017.2 hPa 16.1 km SSW 5.6 km/h / 1.5 m/s - N/A   Clear
4:35 AM 13.0 °C - 11.0 °C 88% 1017.5 hPa 11.3 km SSW 5.6 km/h / 1.5 m/s - N/A   Clear
4:55 AM 13.0 °C - 11.0 °C 88% 1017.5 hPa 11.3 km Calm Calm - N/A   Clear
5:15 AM 12.0 °C - 11.0 °C 94% 1017.5 hPa 12.9 km SSW 5.6 km/h / 1.5 m/s - N/A   Clear
5:35 AM 13.0 °C - 11.0 °C 88% 1017.5 hPa 12.9 km SSW 5.6 km/h / 1.5 m/s - N/A   Clear
5:55 AM 13.0 °C - 11.0 °C 88% 1017.8 hPa 16.1 km Calm Calm - N/A   Clear
6:15 AM 12.0 °C - 11.0 °C 94% 1017.8 hPa 8.0 km Calm Calm - N/A   Clear
6:35 AM 12.0 °C - 10.0 °C 88% 1018.2 hPa 12.9 km South 5.6 km/h / 1.5 m/s - N/A   Clear
6:50 AM 12.0 °C - 10.0 °C 88% 1018.2 hPa 9.7 km South 5.6 km/h / 1.5 m/s - N/A   Clear
7:50 AM 14.0 °C - 12.0 °C 88% 1019.2 hPa 16.1 km South 5.6 km/h / 1.5 m/s - N/A   Clear
8:50 AM 19.0 °C - 16.0 °C 83% 1019.9 hPa 16.1 km Calm Calm - N/A   Clear
9:50 AM 21.0 °C - 16.0 °C 73% 1020.2 hPa 16.1 km NW 9.3 km/h / 2.6 m/s - N/A   Scattered Clouds
10:50 AM 23.0 °C - 15.0 °C 61% 1020.2 hPa 16.1 km WNW 7.4 km/h / 2.1 m/s - N/A   Mostly Cloudy
11:50 AM 24.0 °C - 14.0 °C 53% 1020.2 hPa 16.1 km WNW 7.4 km/h / 2.1 m/s - N/A   Mostly Cloudy
12:50 PM 24.0 °C - 14.0 °C 53% 1019.5 hPa 16.1 km WSW 11.1 km/h / 3.1 m/s - N/A   Scattered Clouds
1:50 PM 25.0 °C - 14.0 °C 50% 1019.2 hPa 16.1 km West 14.8 km/h / 4.1 m/s - N/A   Mostly Cloudy
2:50 PM 25.0 °C - 14.0 °C 50% 1019.2 hPa 16.1 km West 14.8 km/h / 4.1 m/s - N/A   Mostly Cloudy
3:50 PM 25.0 °C - 14.0 °C 50% 1018.5 hPa 16.1 km West 11.1 km/h / 3.1 m/s - N/A   Scattered Clouds
4:50 PM 27.0 °C 27.0 °C 13.0 °C 42% 1018.2 hPa 16.1 km WSW 27.8 km/h / 7.7 m/s - N/A   Scattered Clouds
5:50 PM 26.0 °C - 13.0 °C 44% 1018.2 hPa 16.1 km WSW 16.7 km/h / 4.6 m/s - N/A   Partly Cloudy
6:50 PM 24.0 °C - 13.0 °C 50% 1018.5 hPa 16.1 km WSW 18.5 km/h / 5.1 m/s 27.8 km/h / 7.7 m/s N/A   Clear
7:55 PM 22.0 °C - 14.0 °C 60% 1019.2 hPa 16.1 km WSW 13.0 km/h / 3.6 m/s - N/A   Clear
8:15 PM 22.0 °C - 14.0 °C 60% 1019.2 hPa 16.1 km WSW 11.1 km/h / 3.1 m/s - N/A   Clear
8:35 PM 21.0 °C - 14.0 °C 64% 1019.5 hPa 16.1 km WSW 11.1 km/h / 3.1 m/s - N/A   Clear
8:55 PM 21.0 °C - 14.0 °C 64% 1019.5 hPa 16.1 km WSW 7.4 km/h / 2.1 m/s - N/A   Clear
9:15 PM 20.0 °C - 14.0 °C 68% 1019.9 hPa 16.1 km WSW 7.4 km/h / 2.1 m/s - N/A   Clear
9:35 PM 19.0 °C - 15.0 °C 78% 1020.2 hPa 16.1 km WSW 5.6 km/h / 1.5 m/s - N/A   Clear
9:55 PM 18.0 °C - 14.0 °C 77% 1020.2 hPa 16.1 km Calm Calm - N/A   Clear
10:15 PM 17.0 °C - 14.0 °C 82% 1020.2 hPa 16.1 km Calm Calm - N/A   Clear
10:35 PM 18.0 °C - 14.0 °C 77% 1020.5 hPa 16.1 km Calm Calm - N/A   Clear
10:55 PM 17.0 °C - 14.0 °C 82% 1020.9 hPa 16.1 km Calm Calm - N/A   Clear
11:15 PM 16.0 °C - 13.0 °C 82% 1020.9 hPa 16.1 km Calm Calm - N/A   Clear
11:35 PM 16.0 °C - 14.0 °C 88% 1020.9 hPa 16.1 km Calm Calm - N/A   Clear
11:55 PM 16.0 °C - 14.0 °C 88% 1020.9 hPa 16.1 km Calm Calm - N/A   Clear